Location: Home
(40.5300°N, 105.0300°W)
Time: 19:01:13
(UTC-06:00)

STARLINK-2704 - Pass Details

Date: 22 June 2021
Orbit: 546 x 548 km, 53.1° (Epoch: 23 July)

Event Time Altitude Azimuth Distance (km) Brightness Sun altitude
Exits shadow 02:26:51 - 114° (ESE) 2,465 6.9 -23.1°
Enters shadow 03:26:47 -68° 232° (SW) 12,388 10.4 -17.7°
Maximum altitude 04:04:56 36° 133° (SE) 867 4.6 -13.2°
